www.pogodaiklimat.ru

Погода и климат >> Архив погоды >> Россия >> Якутия >> Усть-Чаркы


ПОГОДА в Усть-Чарках

  • Прогноз погоды в Усть-Чарках
  • Монитор погоды в Усть-Чарках
  • Климат города

АРХИВ ПОГОДЫ в Усть-Чарках

Время (UTC), дата Ветер
(напр.,м/с)
 
Видим.   Явления Облачность Т
(С)
Тd
(С)
f
(%)
Тe
(С)
Тes
(С)
Комфортность P
(гПа)
Po
(гПа)
Тmin
(С)
Tmax
(С)
R
(мм)
R24
(мм)
S
(см)
00 12.01 штиль 0 50 км 6/0
[Ac trans Ci fib]
-46.7 -49.6 72 -47 -47 опасность
обморожения
1024.7 982.3
03 12.01 штиль 0 50 км 10/0
[Ac trans Ci fib]
-43.9 -46.3 77 -44 -44 опасность
обморожения
1023.9 983.1
06 12.01 штиль 0 50 км 10/0
[As trans Ci fib]
-42.0 -45.0 72 -42 -42 опасность
обморожения
1023.6 983.3
09 12.01 штиль 0 50 км 10/0
[Ac trans Cs]
-41.4 -44.4 72 -41 -41 опасность
обморожения
1024.1 983.7 -41.4
12 12.01 штиль 0 50 км 3/0
[Ci fib]
-41.0 -43.8 74 -41 -41 опасность
обморожения
1024.7 984.3
15 12.01 Ю 1 50 км 3/0
[Ci fib]
-41.4 -44.4 72 -47 -47 опасность
обморожения
1024.9 984.5
18 12.01 ЮВ 1 50 км 4/0
[Ci fib]
-41.6 -44.4 74 -47 -47 опасность
обморожения
1025.2 984.6
21 12.01 ЮВ 2 50 км ясно -42.8 -45.6 74 -52 -52 опасность
обморожения
1024.7 983.9 -42.8 27
00 13.01 ЮВ 1 50 км 6/0
[Ci fib]
-43.3 -46.3 72 -49 -49 опасность
обморожения
1024.5 983.7 -44.4
03 13.01 штиль 0 50 км 6/0
[Ac trans Ci fib]
-44.3 -47.6 69 -44 -44 опасность
обморожения
1023.6 982.8
06 13.01 ЮВ 3 50 км 3/0
[Ci fib]
-45.5 -48.4 72 -58 -58 опасность
обморожения
1023.9 982.7
09 13.01 штиль 0 50 км 3/0
[Ci fib]
-46.3 -49.2 72 -46 -46 опасность
обморожения
1023.9 982.7 -42.8
12 13.01 ЮВ 3 50 км ясно -45.3 -48.4 71 -58 -58 опасность
обморожения
1023.3 982.3
15 13.01 В 1 50 км ясно -45.8 -49.2 68 -52 -52 опасность
обморожения
1023.4 982.2
18 13.01 штиль 0 50 км ясно -46.3 -49.2 72 -46 -46 опасность
обморожения
1023.6 982.4
21 13.01 В 3 50 км ясно -46.1 -49.2 71 -59 -59 опасность
обморожения
1023.3 982.1 -46.5 27
00 14.01 ЮВ 1 50 км 4/0
[Ac trans Ci fib]
-47.8 -51.2 68 -54 -54 опасность
обморожения
1024.0 981.4 -47.8
03 14.01 ЮВ 1 50 км 3/0
[Ci fib]
-48.6 -52.4 64 -55 -55 опасность
обморожения
1023.6 981.9
06 14.01 В 1 50 км ясно -49.1 -52.4 68 -55 -55 опасность
обморожения
1023.6 981.9
09 14.01 ЮВ 1 50 км ясно -50.3 -53.7 67 -57 -57 опасность
обморожения
1024.1 982.2 -46.1
12 14.01 ЮВ 1 50 км 4/0
[Ci ing]
-49.7 -52.4 73 -56 -56 опасность
обморожения
1023.5 981.6
15 14.01 штиль 0 50 км ясно -51.2 -53.7 74 -51 -51 опасность
обморожения
1023.7 981.6
18 14.01 В 2 50 км ясно -49.9 -53.7 64 -61 -61 опасность
обморожения
1023.2 981.3
21 14.01 ЮВ 3 50 км ясно -48.9 -52.4 67 -62 -62 опасность
обморожения
1022.6 980.9 -51.4 27
00 15.01 ЮВ 2 50 км ясно -48.3 -51.2 72 -59 -59 опасность
обморожения
1022.3 980.7
03 15.01 ЮВ 1 50 км ясно -48.6 -52.4 64 -55 -55 опасность
обморожения
1021.8 980.2
06 15.01 ЮВ 1 50 км 1/0
[Ac trans]
-47.5 -51.2 65 -54 -54 опасность
обморожения
1021.4 980.0
09 15.01 ЮВ 2 50 км ясно -47.5 -51.2 65 -58 -58 опасность
обморожения
1021.8 980.4 -47.5
12 15.01 ЮВ 1 50 км ясно -48.9 -52.4 67 -55 -55 опасность
обморожения
1022.6 980.9
15 15.01 штиль 0 50 км ясно -49.3 -52.4 70 -49 -49 опасность
обморожения
1022.2 980.5
18 15.01 штиль 0 50 км ясно -49.6 -52.4 72 -50 -50 опасность
обморожения
1021.8 980.0
21 15.01 В 2 50 км ясно -48.5 -51.2 73 -59 -59 опасность
обморожения
1023.1 981.4 -50.3 27
00 16.01 ЮВ 2 50 км 6/0
[Ac trans]
-43.8 -46.9 71 -54 -54 опасность
обморожения
1022.4 981.6
03 16.01 ЮВ 2 50 км 6/0
[Ci fib]
-43.8 -46.9 71 -54 -54 опасность
обморожения
1022.8 982.0
06 16.01 штиль 0 50 км ясно -44.6 -47.6 72 -45 -45 опасность
обморожения
1024.0 983.0
09 16.01 ЮВ 2 50 км ясно -44.1 -47.0 73 -54 -54 опасность
обморожения
1025.0 984.1 -43.8
12 16.01 В 3 50 км ясно -44.3 -47.6 69 -57 -57 опасность
обморожения
1025.9 985.0
15 16.01 ЮВ 1 50 км ясно -43.6 -46.9 70 -49 -49 опасность
обморожения
1026.4 985.5
18 16.01 В 2 50 км ясно -43.9 -46.9 72 -54 -54 опасность
обморожения
1027.9 986.0
21 16.01 ЮВ 2 50 км ясно -45.1 -48.4 69 -55 -55 опасность
обморожения
1028.6 987.4 -45.6 27
00 17.01 ЮВ 2 50 км ясно -45.9 -49.2 69 -56 -56 опасность
обморожения
1029.4 988.0 -47.0
03 17.01 ЮВ 3 50 км ясно -45.5 -48.4 72 -58 -58 опасность
обморожения
1029.9 988.5
06 17.01 ЮВ 3 50 км 3/0
[Ac lent]
-45.4 -48.4 72 -58 -58 опасность
обморожения
1030.0 988.8
09 17.01 ЮВ 3 50 км 4/0
[Cs]
-45.4 -48.4 72 -58 -58 опасность
обморожения
1030.5 989.3 -45.1
12 17.01 ЮВ 2 50 км 6/0
[Cs]
-45.6 -49.2 67 -56 -56 опасность
обморожения
1030.8 989.4
15 17.01 В 2 50 км 6/0
[Cs]
-44.8 -48.4 67 -55 -55 опасность
обморожения
1030.4 989.2
18 17.01 ЮВ 2 50 км 3/0
[Cs]
-45.1 -48.3 70 -55 -55 опасность
обморожения
1020.9 989.5
21 17.01 ЮВ 2 50 км 8/0
[Cs]
-45.1 -48.4 69 -55 -55 опасность
обморожения
1031.3 989.9 -45.6 27
00 18.01 В 1 50 км 3/0
[Ci fib]
-44.3 -47.6 69 -50 -50 опасность
обморожения
1030.9 989.7
03 18.01 ЮВ 2 50 км 10/0
[Cs]
-43.9 -46.9 72 -54 -54 опасность
обморожения
1030.5 989.4
06 18.01 В 3 20 км слабый снег 10/0
[Cs]
-42.4 -45.6 71 -55 -55 опасность
обморожения
1030.8 990.0
09 18.01 штиль 0 50 км в посл. час снег 8/0
[Cs]
-42.3 -45.6 70 -42 -42 опасность
обморожения
1031.3 990.5 -42.3 0.3
12 18.01 ЮВ 1 50 км {снег} 10/0
[Ci fib]
-42.9 -46.2 70 -48 -48 опасность
обморожения
1032.6 991.6
15 18.01 ЮВ 1 50 км 10/0
[Cs]
-42.1 -45.6 68 -48 -48 опасность
обморожения
1032.7 991.9
18 18.01 ЮВ 1 50 км 10/0
[Cs]
-41.5 -45.0 69 -47 -47 опасность
обморожения
1032.8 992.0
21 18.01 ЮВ 2 50 км 10/0
[Cs]
-41.7 -45.0 70 -51 -51 опасность
обморожения
1033.8 992.8 -43.1 27

 

Местоположение метеостанции Усть-Чаркы (Якутия, Россия): широта 66.80 долгота 136.60 высота над уровнем моря 274 м.

В архиве по умолчанию представлена погода в Усть-Чарках за последнюю неделю. Архивные данные за месяц целиком и за предыдущие месяцы, начиная с января 2011 года, Вы можете получить, выбрав интересующий диапазон дат из раскрывающегося списка и нажав кнопку "Ввод!".

Внимание! Время в таблицах - всемирное. Для получения местного времени необходимо прибавить поправку, которая в Усть-Чарках равна 10 ч.

Смотрите также архив погоды в соседних городах и на ближайших метеорологических станциях:

Погода в Батагае (Якутия, Россия) (128 км)
Погода в Верхоянске (Якутия, Россия) (162 км)
Погода в Иэме (Якутия, Россия) (171 км)
Погода в Екюччю (Якутия, Россия) (219 км)
Погода в Батагай-Алыте (Якутия, Россия) (288 км)
Погода в Усть-Моме (Якутия, Россия) (294 км)
Погода в Депутатском (Якутия, Россия) (316 км)
Погода в Томпо (Якутия, Россия) (319 км)
Погода в Себян-Кюеле (Якутия, Россия) (341 км)
Погода в Усть-Куйге (Якутия, Россия) (358 км)

Пояснения к столбцам:

Ветер - указаны скорость ветра в м/с - средняя за 10 мин, порывы в срок и между сроками (в фигурных скобках) и направление, откуда дует ветер: С - северный, СВ - северо-восточный, В - восточный, ЮВ - юго-восточный, Ю - южный, ЮЗ - юго-западный, З - западный, СЗ - северо-западный.
Видимость - горизонтальная дальность видимости в метрах или километрах. При видимости от 1 до 10 км при отсутствии осадков обычно наблюдается дымка, при ухудшении видимости до 1 км и менее - туман. В сухую погоду видимость может ухудшаться дымом, пылью или мглою.
Явления - указаны атмосферные явления, наблюдавшиеся в срок или в последний час перед сроком; фигурными скобками обозначены явления, наблюдавшиеся между сроками (за 1-3 часа до срока); квадратными скобками обозначены град или гололедные отложения с указанием их диаметра в мм.
Облачность - указаны через наклонную черту общая и нижняя облачность в баллах и высота нижней границы облаков в метрах; квадратными скобками обозначены формы облаков: Ci - перистые, Cs - перисто-слоистые, Cc - перисто-кучевые, Ac - высококучевые, As - высокослоистые, Sc - слоисто-кучевые, Ns - слоисто-дождевые, Cu - кучевые, Cb - кучево-дождевые. Подробнее классификацию облаков см. в Атласе облаков (PDF).
T - Температура воздуха - температура, измеренная на высоте 2 м над землей.
Td - Температура точки росы - температура, при понижении до которой содержащийся в воздухе водяной пар достигнет насыщения.
f - Относительная влажность воздуха - влажноcть воздуха, измеренная на высоте 2 м над землей.
Te - Эффективная температура - температура, которую ощущает одетый по сезону человек в тени. Характеристика душности погоды. При расчете учитывается влияние влажности воздуха и скорости ветра на теплоощущения человека.
Tes - Эффективная температура на солнце - температура, которую ощущает человек, с поправкой на солнечный нагрев. Характеристика знойности погоды. Зависит от высоты солнца над горизонтом, облачности и скорости ветра. Ночью, в пасмурную погоду, а также при ветре 12 м/с и более поправка равна нулю.
P - Атмосферное давление - приведенное к уровню моря атмосферное давление.
Po - Атмосферное давление - измеренное на уровне метеостанции атмосферное давление.
Tmin - Минимальная температура - минимум температуры воздуха на высоте 2 м над землей.
Tmax - Максимальная температура - максимум температуры воздуха на высоте 2 м над землей.
R - Количество осадков - Количество выпавших осадков за период времени, мм. При наведении курсора мыши на число - период времени, за который выпало указанное количество осадков.
R24 - Количество осадков - Количество выпавших осадков за 24 часа, мм.
S - Снежный покров - Высота снежного покрова, см. При наведении курсора мыши на число - состояние снежного покрова и степень покрытия местности в баллах.